TimeEST,TemperatureF,Dew PointF,Humidity,Sea Level PressureIn,VisibilityMPH,Wind Direction,Wind SpeedMPH,Gust SpeedMPH,PrecipitationIn,Events,Conditions,WindDirDegrees,DateUTC
12:15 AM,42.8,37.4,81,30.39,10.0,Calm,Calm,-,N/A,,Clear,0,2012-11-11 05:15:00
12:35 AM,41.0,37.4,87,30.39,10.0,Calm,Calm,-,N/A,,Clear,0,2012-11-11 05:35:00
12:55 AM,41.0,37.4,87,30.39,10.0,Calm,Calm,-,N/A,,Clear,0,2012-11-11 05:55:00
1:15 AM,39.2,37.4,93,30.38,10.0,Calm,Calm,-,N/A,,Clear,0,2012-11-11 06:15:00
2:15 AM,39.2,35.6,87,30.38,10.0,Calm,Calm,-,N/A,,Clear,0,2012-11-11 07:15:00
2:35 AM,39.2,35.6,87,30.38,10.0,Calm,Calm,-,N/A,,Clear,0,2012-11-11 07:35:00
2:55 AM,39.2,35.6,87,30.38,10.0,Calm,Calm,-,N/A,,Clear,0,2012-11-11 07:55:00
3:15 AM,39.2,35.6,87,30.38,10.0,Calm,Calm,-,N/A,,Clear,0,2012-11-11 08:15:00
3:35 AM,39.2,35.6,87,30.38,10.0,Calm,Calm,-,N/A,,Partly Cloudy,0,2012-11-11 08:35:00
3:55 AM,39.2,35.6,87,30.38,10.0,Calm,Calm,-,N/A,,Partly Cloudy,0,2012-11-11 08:55:00
4:15 AM,39.2,35.6,87,30.38,10.0,Calm,Calm,-,N/A,,Scattered Clouds,0,2012-11-11 09:15:00
4:35 AM,39.2,37.4,93,30.38,10.0,Calm,Calm,-,N/A,,Partly Cloudy,0,2012-11-11 09:35:00
4:55 AM,39.2,37.4,93,30.38,10.0,Calm,Calm,-,N/A,,Clear,0,2012-11-11 09:55:00
5:15 AM,39.2,37.4,93,30.39,10.0,Calm,Calm,-,N/A,,Partly Cloudy,0,2012-11-11 10:15:00
5:35 AM,39.2,37.4,93,30.39,10.0,Calm,Calm,-,N/A,,Partly Cloudy,0,2012-11-11 10:35:00
5:55 AM,39.2,37.4,93,30.40,10.0,Calm,Calm,-,N/A,,Partly Cloudy,0,2012-11-11 10:55:00
6:15 AM,39.2,37.4,93,30.40,10.0,Calm,Calm,-,N/A,,Partly Cloudy,0,2012-11-11 11:15:00
6:55 AM,41.0,37.4,87,30.42,10.0,Calm,Calm,-,N/A,,Partly Cloudy,0,2012-11-11 11:55:00
7:15 AM,39.2,37.4,93,30.43,10.0,Calm,Calm,-,N/A,,Clear,0,2012-11-11 12:15:00
7:35 AM,41.0,37.4,87,30.43,10.0,Calm,Calm,-,N/A,,Clear,0,2012-11-11 12:35:00
7:55 AM,44.6,39.2,81,30.44,10.0,Calm,Calm,-,N/A,,Scattered Clouds,0,2012-11-11 12:55:00
8:15 AM,46.4,41.0,81,30.44,10.0,Calm,Calm,-,N/A,,Overcast,0,2012-11-11 13:15:00
8:35 AM,48.2,42.8,82,30.44,10.0,Calm,Calm,-,N/A,,Overcast,0,2012-11-11 13:35:00
8:55 AM,51.8,44.6,76,30.44,10.0,Calm,Calm,-,N/A,,Overcast,0,2012-11-11 13:55:00
9:15 AM,55.4,44.6,67,30.44,10.0,Calm,Calm,-,N/A,,Mostly Cloudy,0,2012-11-11 14:15:00
11:15 AM,69.8,50.0,49,30.45,10.0,East,5.8,-,N/A,,Partly Cloudy,100,2012-11-11 16:15:00
11:35 AM,71.6,51.8,50,30.44,10.0,ESE,3.5,-,N/A,,Partly Cloudy,110,2012-11-11 16:35:00
11:55 AM,71.6,53.6,53,30.44,10.0,SE,6.9,-,N/A,,Mostly Cloudy,130,2012-11-11 16:55:00
12:15 PM,71.6,53.6,53,30.43,10.0,Calm,Calm,-,N/A,,Overcast,0,2012-11-11 17:15:00
12:35 PM,71.6,53.6,53,30.41,10.0,Calm,Calm,-,N/A,,Mostly Cloudy,0,2012-11-11 17:35:00
12:55 PM,73.4,53.6,50,30.40,10.0,East,5.8,-,N/A,,Mostly Cloudy,90,2012-11-11 17:55:00
1:15 PM,75.2,53.6,47,30.39,10.0,ESE,6.9,-,N/A,,Mostly Cloudy,120,2012-11-11 18:15:00
1:35 PM,75.2,53.6,47,30.39,10.0,Calm,Calm,-,N/A,,Partly Cloudy,0,2012-11-11 18:35:00
1:55 PM,73.4,53.6,50,30.39,10.0,East,8.1,-,N/A,,Mostly Cloudy,100,2012-11-11 18:55:00
2:15 PM,73.4,53.6,50,30.39,10.0,ESE,3.5,-,N/A,,Overcast,120,2012-11-11 19:15:00
2:35 PM,73.4,55.4,53,30.38,10.0,East,6.9,-,N/A,,Mostly Cloudy,100,2012-11-11 19:35:00
2:55 PM,73.4,55.4,53,30.37,10.0,East,4.6,-,N/A,,Mostly Cloudy,80,2012-11-11 19:55:00
3:15 PM,73.4,55.4,53,30.37,10.0,Calm,Calm,-,N/A,,Mostly Cloudy,0,2012-11-11 20:15:00
3:35 PM,75.2,55.4,50,30.37,10.0,ESE,8.1,-,N/A,,Overcast,110,2012-11-11 20:35:00
3:55 PM,75.2,55.4,50,30.37,10.0,ESE,9.2,-,N/A,,Overcast,110,2012-11-11 20:55:00
4:15 PM,75.2,55.4,50,30.36,10.0,SE,9.2,-,N/A,,Scattered Clouds,130,2012-11-11 21:15:00
4:35 PM,73.4,55.4,53,30.36,10.0,ESE,9.2,-,N/A,,Partly Cloudy,110,2012-11-11 21:35:00
5:15 PM,71.6,55.4,57,30.36,10.0,ESE,5.8,-,N/A,,Clear,120,2012-11-11 22:15:00
5:35 PM,69.8,55.4,60,30.36,10.0,ESE,3.5,-,N/A,,Mostly Cloudy,120,2012-11-11 22:35:00
6:15 PM,68.0,55.4,64,30.37,10.0,Calm,Calm,-,N/A,,Partly Cloudy,0,2012-11-11 23:15:00
6:35 PM,64.4,55.4,73,30.37,10.0,Calm,Calm,-,N/A,,Scattered Clouds,0,2012-11-11 23:35:00
6:55 PM,66.2,55.4,68,30.38,10.0,Calm,Calm,-,N/A,,Overcast,0,2012-11-11 23:55:00
7:15 PM,66.2,57.2,73,30.38,10.0,Calm,Calm,-,N/A,,Overcast,0,2012-11-12 00:15:00
7:35 PM,66.2,57.2,73,30.38,10.0,ESE,4.6,-,N/A,,Overcast,120,2012-11-12 00:35:00
8:15 PM,66.2,57.2,73,30.38,10.0,ESE,3.5,-,N/A,,Overcast,110,2012-11-12 01:15:00
8:35 PM,66.2,57.2,73,30.38,10.0,ESE,4.6,-,N/A,,Overcast,120,2012-11-12 01:35:00
8:55 PM,64.4,57.2,77,30.38,10.0,East,3.5,-,N/A,,Mostly Cloudy,100,2012-11-12 01:55:00
9:15 PM,64.4,57.2,77,30.39,10.0,Calm,Calm,-,N/A,,Clear,0,2012-11-12 02:15:00
9:35 PM,62.6,57.2,82,30.39,10.0,Calm,Calm,-,N/A,,Clear,0,2012-11-12 02:35:00
9:55 PM,62.6,57.2,82,30.38,10.0,East,6.9,-,N/A,,Clear,80,2012-11-12 02:55:00
10:15 PM,62.6,57.2,82,30.38,10.0,East,4.6,-,N/A,,Clear,80,2012-11-12 03:15:00
10:35 PM,60.8,57.2,88,30.38,10.0,Calm,Calm,-,N/A,,Clear,0,2012-11-12 03:35:00
10:55 PM,60.8,57.2,88,30.38,10.0,East,5.8,-,N/A,,Partly Cloudy,80,2012-11-12 03:55:00
11:15 PM,60.8,57.2,88,30.38,10.0,Calm,Calm,-,N/A,,Mostly Cloudy,0,2012-11-12 04:15:00
11:35 PM,60.8,57.2,88,30.37,10.0,Calm,Calm,-,N/A,,Partly Cloudy,0,2012-11-12 04:35:00
11:55 PM,60.8,57.2,88,30.37,10.0,Calm,Calm,-,N/A,,Clear,0,2012-11-12 04:55:00